When you browse on this site, cookies collect data to enhance your experience and personalize the content and advertising you see.
Visit our Privacy Policy to learn more. By continuing to use the site, you agree to this use of cookies and data.

Hourly Weather Kosh

Today, 14 July, Tuesday

Time Temperature Precipitation Wind Pressure Humidity
00:00 +11°C° 0 mm 3 mps 741 mmHg 94%
01:00 +10°C° 0 mm 3 mps 741 mmHg 94%
02:00 +10°C° 0 mm 4 mps 741 mmHg 96%
03:00 +11°C° 0 mm 4 mps 741 mmHg 94%
04:00 +11°C° 0 mm 4 mps 741 mmHg 93%
05:00 +10°C° 0 mm 5 mps 741 mmHg 91%
06:00 +12°C° 0 mm 5 mps 741 mmHg 88%
07:00 +13°C° 0 mm 5 mps 741 mmHg 84%
08:00 +14°C° 0 mm 6 mps 741 mmHg 81%
09:00 +15°C° 0 mm 6 mps 741 mmHg 78%
10:00 +16°C° 0 mm 6 mps 741 mmHg 75%
11:00 +17°C° 0 mm 7 mps 741 mmHg 71%
12:00 +19°C° 0 mm 6 mps 741 mmHg 70%
13:00 +19°C° 0 mm 6 mps 740 mmHg 69%
14:00 +19°C° 0 mm 6 mps 740 mmHg 69%
15:00 +19°C° 0 mm 6 mps 740 mmHg 71%
16:00 +19°C° 0 mm 6 mps 740 mmHg 74%
17:00 +19°C° 0 mm 5 mps 739 mmHg 76%
18:00 +17°C° 0 mm 5 mps 739 mmHg 76%
19:00 +16°C° 0 mm 5 mps 739 mmHg 75%
20:00 +15°C° 0 mm 6 mps 739 mmHg 74%
21:00 +15°C° 0 mm 6 mps 738 mmHg 71%
22:00 +14°C° 0 mm 5 mps 738 mmHg 69%
23:00 +14°C° 0 mm 5 mps 738 mmHg 66%

Tomorrow, 15 July, Wednesday

Time Temperature Precipitation Wind Pressure Humidity
00:00 +14°C° 0.1 mm 5 mps 738 mmHg 68%
01:00 +13°C° 0.1 mm 5 mps 738 mmHg 71%
02:00 +13°C° 0.1 mm 5 mps 738 mmHg 73%
03:00 +12°C° 0.3 mm 5 mps 737 mmHg 78%
04:00 +12°C° 0.3 mm 5 mps 737 mmHg 84%
05:00 +10°C° 0.3 mm 5 mps 737 mmHg 89%
06:00 +11°C° 0.1 mm 6 mps 737 mmHg 87%
07:00 +11°C° 0.1 mm 7 mps 737 mmHg 85%
08:00 +12°C° 0.1 mm 7 mps 737 mmHg 83%
09:00 +11°C° 0.3 mm 7 mps 737 mmHg 83%
10:00 +11°C° 0.3 mm 7 mps 737 mmHg 83%
11:00 +11°C° 0.3 mm 7 mps 737 mmHg 83%
12:00 +11°C° 0.9 mm 7 mps 737 mmHg 85%
13:00 +11°C° 0.9 mm 7 mps 738 mmHg 88%
14:00 +11°C° 0.9 mm 6 mps 738 mmHg 90%
15:00 +10°C° 0.7 mm 6 mps 738 mmHg 91%
16:00 +10°C° 0.7 mm 5 mps 739 mmHg 92%
17:00 +10°C° 0.7 mm 5 mps 739 mmHg 92%
18:00 +11°C° 0 mm 4 mps 739 mmHg 92%
19:00 +11°C° 0 mm 4 mps 739 mmHg 91%
20:00 +11°C° 0 mm 3 mps 739 mmHg 90%
21:00 +11°C° 0 mm 3 mps 740 mmHg 91%
22:00 +11°C° 0 mm 3 mps 740 mmHg 91%
23:00 +12°C° 0 mm 2 mps 740 mmHg 91%

Day after tomorrow, 16 July, Thursday

Time Temperature Precipitation Wind Pressure Humidity
00:00 +10°C° 0 mm 3 mps 740 mmHg 92%
01:00 +10°C° 0 mm 3 mps 740 mmHg 92%
02:00 +10°C° 0 mm 4 mps 740 mmHg 93%
03:00 +10°C° 0 mm 4 mps 740 mmHg 93%
04:00 +10°C° 0 mm 4 mps 740 mmHg 93%
05:00 +10°C° 0 mm 4 mps 740 mmHg 93%
06:00 +12°C° 0 mm 4 mps 740 mmHg 90%
07:00 +13°C° 0 mm 4 mps 740 mmHg 87%
08:00 +15°C° 0 mm 4 mps 740 mmHg 84%
09:00 +17°C° 0 mm 4 mps 740 mmHg 79%
10:00 +19°C° 0 mm 4 mps 740 mmHg 74%
11:00 +20°C° 0 mm 4 mps 740 mmHg 68%
12:00 +20°C° 0 mm 4 mps 740 mmHg 68%
13:00 +21°C° 0 mm 4 mps 740 mmHg 67%
14:00 +21°C° 0 mm 4 mps 740 mmHg 66%
15:00 +21°C° 0 mm 4 mps 740 mmHg 68%
16:00 +21°C° 0 mm 3 mps 740 mmHg 70%
17:00 +21°C° 0 mm 3 mps 740 mmHg 72%
18:00 +19°C° 0 mm 2 mps 740 mmHg 76%
19:00 +18°C° 0 mm 2 mps 740 mmHg 79%
20:00 +16°C° 0 mm 1 mps 740 mmHg 82%
21:00 +15°C° 0 mm 1 mps 740 mmHg 82%
22:00 +15°C° 0 mm 1 mps 740 mmHg 82%
23:00 +14°C° 0 mm 1 mps 740 mmHg 82%

17 July, Friday

Time Temperature Precipitation Wind Pressure Humidity
00:00 +14°C° 0 mm 1 mps 740 mmHg 84%
01:00 +13°C° 0 mm 1 mps 740 mmHg 85%
02:00 +13°C° 0 mm 1 mps 740 mmHg 87%
03:00 +13°C° 0 mm 1 mps 740 mmHg 87%
04:00 +13°C° 0 mm 1 mps 740 mmHg 87%
05:00 +13°C° 0 mm 1 mps 741 mmHg 88%
06:00 +15°C° 0 mm 1 mps 741 mmHg 84%
07:00 +18°C° 0 mm 1 mps 741 mmHg 80%
08:00 +20°C° 0 mm 1 mps 741 mmHg 76%
09:00 +21°C° 0.1 mm 1 mps 741 mmHg 73%
10:00 +22°C° 0.1 mm 1 mps 741 mmHg 69%
11:00 +24°C° 0.1 mm 1 mps 741 mmHg 66%
12:00 +24°C° 0.2 mm 1 mps 741 mmHg 64%
13:00 +24°C° 0.2 mm 1 mps 741 mmHg 62%
14:00 +25°C° 0.2 mm 1 mps 741 mmHg 61%
15:00 +24°C° 0.3 mm 1 mps 741 mmHg 64%
16:00 +24°C° 0.3 mm 1 mps 741 mmHg 67%
17:00 +24°C° 0.3 mm 1 mps 741 mmHg 70%
18:00 +23°C° 0.1 mm 1 mps 742 mmHg 74%
19:00 +21°C° 0.1 mm 1 mps 742 mmHg 77%
20:00 +18°C° 0.1 mm 2 mps 742 mmHg 81%
21:00 +18°C° 0 mm 2 mps 742 mmHg 82%
22:00 +17°C° 0 mm 2 mps 742 mmHg 83%
23:00 +16°C° 0 mm 2 mps 743 mmHg 84%

18 July, Saturday

Time Temperature Precipitation Wind Pressure Humidity
00:00 +16°C° 0 mm 2 mps 743 mmHg 83%
01:00 +16°C° 0 mm 2 mps 743 mmHg 82%
02:00 +15°C° 0 mm 2 mps 743 mmHg 81%
03:00 +15°C° 0 mm 2 mps 743 mmHg 82%
04:00 +15°C° 0 mm 2 mps 743 mmHg 83%
05:00 +15°C° 0 mm 2 mps 743 mmHg 83%
06:00 +16°C° 0 mm 2 mps 744 mmHg 82%
07:00 +17°C° 0 mm 2 mps 744 mmHg 81%
08:00 +19°C° 0 mm 2 mps 744 mmHg 80%
09:00 +20°C° 0 mm 2 mps 745 mmHg 76%
10:00 +21°C° 0 mm 3 mps 745 mmHg 73%
11:00 +22°C° 0 mm 3 mps 745 mmHg 70%
12:00 +22°C° 0 mm 3 mps 745 mmHg 68%
13:00 +24°C° 0 mm 3 mps 745 mmHg 65%
14:00 +24°C° 0 mm 3 mps 745 mmHg 63%
15:00 +24°C° 0 mm 3 mps 745 mmHg 66%
16:00 +24°C° 0 mm 3 mps 745 mmHg 68%
17:00 +23°C° 0 mm 2 mps 745 mmHg 71%
18:00 +21°C° 0 mm 2 mps 745 mmHg 73%
19:00 +19°C° 0 mm 2 mps 745 mmHg 75%
20:00 +18°C° 0 mm 2 mps 745 mmHg 78%
21:00 +17°C° 0 mm 2 mps 745 mmHg 77%
22:00 +17°C° 0 mm 2 mps 745 mmHg 77%
23:00 +16°C° 0 mm 2 mps 745 mmHg 77%

19 July, Sunday

Time Temperature Precipitation Wind Pressure Humidity
00:00 +16°C° 0 mm 2 mps 745 mmHg 80%
01:00 +15°C° 0 mm 2 mps 745 mmHg 82%
02:00 +14°C° 0 mm 2 mps 745 mmHg 84%
03:00 +14°C° 0 mm 2 mps 746 mmHg 86%
04:00 +14°C° 0 mm 2 mps 746 mmHg 87%
05:00 +14°C° 0 mm 2 mps 746 mmHg 88%
06:00 +16°C° 0 mm 2 mps 746 mmHg 84%
07:00 +18°C° 0 mm 2 mps 745 mmHg 80%
08:00 +19°C° 0 mm 2 mps 745 mmHg 76%
09:00 +20°C° 0 mm 3 mps 745 mmHg 71%
10:00 +22°C° 0 mm 3 mps 745 mmHg 67%
11:00 +24°C° 0 mm 3 mps 745 mmHg 62%
12:00 +24°C° 0 mm 3 mps 745 mmHg 61%
13:00 +24°C° 0 mm 3 mps 745 mmHg 61%
14:00 +25°C° 0 mm 3 mps 744 mmHg 60%
15:00 +24°C° 0 mm 3 mps 744 mmHg 63%
16:00 +24°C° 0 mm 3 mps 744 mmHg 67%
17:00 +24°C° 0 mm 2 mps 743 mmHg 70%
18:00 +21°C° 0 mm 2 mps 743 mmHg 72%
19:00 +19°C° 0 mm 2 mps 743 mmHg 74%
20:00 +18°C° 0 mm 2 mps 743 mmHg 76%
21:00 +17°C° 0 mm 2 mps 743 mmHg 76%
22:00 +16°C° 0 mm 2 mps 743 mmHg 75%
23:00 +15°C° 0 mm 2 mps 743 mmHg 74%
Show more